Content
SEND FEEDBACK

Daily
Averages
Monthly
Summary
Mexico

XULA, QUINTANA ROO


Home > North America > Mexico > Quintana Roo
Elevation: 85 feet     Latitude: 18 34N     Longitude: 088 27W

WEATHER
 
SELECT A DAY
Number of Records: 122,454;   Date Range: 1/1/95 - 9/15/14
 
SHARE

PRINT THIS DATA

[ ← Previous Day ]
WEATHER ALMANAC - JULY 4, 2014
[ Next Day → ]
[ °C ]   °F
We're sorry. There is no daily almanac available for Xula, Quintana Roo on July 4, 2014.
WEATHER BY HOUR - JULY 4, 2014
[ °C ]   °F
Local TimeTemperatureDewpointHumidityBarometerVisibilityWind DirectionWind SpeedGust SpeedPrecipitationEventsConditions
3:50 AM83.0 °F75.0 °F71 %30.00 in5.0 miEast (90°)4.5 mphMostly Cloudy
6:43 AM82.4 °F75.2 °F79 %30.01 in7.0 miEast (90°)9.2 mphMostly Cloudy
6:50 AM83.0 °F76.0 °F74 %30.02 in6.0 miEast (90°)4.5 mphPartly Cloudy
7:48 AM84.2 °F75.2 °F74 %30.01 in7.0 miEast (90°)11.5 mphMostly Cloudy
8:41 AM84.2 °F75.2 °F74 %30.02 in7.0 miEast (90°)9.2 mphMostly Cloudy
9:40 AM86.0 °F75.2 °F70 %30.04 in7.0 miEast (100°)11.5 mphMostly Cloudy
9:50 AM89.0 °F76.0 °F58 %30.06 in6.0 miEast (90°)6.7 mphScattered Clouds
10:41 AM86.0 °F77.0 °F74 %30.03 in6.0 miEast (100°)17.3 mphMostly Cloudy
11:41 AM89.6 °F77.0 °F66 %30.04 in7.0 miEast (90°)11.5 mphMostly Cloudy
12:40 PM87.8 °F77.0 °F70 %30.03 in7.0 miEast (100°)13.8 mphMostly Cloudy
12:50 PM92.0 °F76.0 °F51 %30.05 in5.0 miESE (110°)6.7 mphScattered Clouds
1:41 PM87.8 °F77.0 °F70 %30.02 in7.0 miESE (120°)17.3 mphMostly Cloudy
2:40 PM89.6 °F78.8 °F70 %30.01 in7.0 miEast (100°)17.3 mphMostly Cloudy
3:40 PM87.8 °F77.0 °F70 %30.00 in7.0 miEast (100°)11.5 mphMostly Cloudy
3:50 PM93.0 °F76.0 °F48 %30.01 in6.0 miESE (110°)8.9 mphPartly Cloudy
4:40 PM87.8 °F77.0 °F70 %29.97 in7.0 miESE (120°)15.0 mphMostly Cloudy
5:42 PM87.8 °F77.0 °F70 %29.97 in7.0 miEast (100°)17.3 mphMostly Cloudy
6:40 PM87.8 °F77.0 °F70 %29.98 in7.0 miEast (90°)11.5 mphMostly Cloudy
6:50 PM89.0 °F76.0 °F58 %30.00 in6.0 miEast (90°)4.5 mphScattered Clouds
7:40 PM86.0 °F77.0 °F74 %30.00 in7.0 miENE (60°)11.5 mphScattered Clouds
8:40 PM86.0 °F77.0 °F74 %30.03 in7.0 miENE (60°)11.5 mphScattered Clouds
9:40 PM84.2 °F75.2 °F74 %30.05 in7.0 miENE (60°)9.2 mphScattered Clouds
9:50 PM84.0 °F74.0 °F64 %30.06 in5.0 miEast (80°)4.5 mphScattered Clouds
Hourly data recorded from MMCM, located miles away from Xula, Quintana Roo







STORIES FROM OUR PARTNERS